Wind_Speed
86 88 90 94 95 99 102 106 109 111 112 106 112 114 118 121 125 127 134 138 144 145 144 145 142 139 140 134 129 124 117 109 103 99 96 94 89 86 83 81 81 80 81 80
93 98 99 100 100 103 105 112 113 114 115 122 126 125 128 136 136 141 144 146 144 147 143 143 137 136 128 124 117 109 102 95 92 89 88 85 81 78 78 75 75 73 73 73
100 99 103 104 106 112 114 114 117 122 128 132 133 135 135 143 147 146 144 138 135 140 136 136 136 127 116 108 103 97 91 88 84 81 80 79 76 73 73 73 70 67 66 66
104 105 109 110 110 113 118 122 126 129 134 139 142 141 145 148 151 146 136 139 136 135 139 134 122 109 102 98 93 88 84 80 77 73 71 73 71 68 67 67 65 63 61 60
107 110 114 113 116 120 124 128 130 135 140 142 146 148 147 154 143 135 135 135 137 136 132 118 109 98 89 87 84 80 75 71 69 68 65 65 64 62 60 61 63 59 57 54
114 117 118 118 121 126 133 137 135 142 146 148 153 147 144 135 137 135 136 140 139 130 119 107 96 87 82 78 73 71 68 65 61 62 61 58 56 55 55 55 57 56 53 53
118 121 121 124 128 132 135 139 143 147 151 153 151 146 132 132 130 133 135 136 128 118 105 94 85 80 76 74 66 61 59 59 57 55 54 53 52 50 50 51 51 51 51 51
126 128 128 130 135 138 140 144 149 153 154 150 139 133 129 131 132 136 129 124 113 99 91 84 78 72 65 62 64 53 52 51 50 49 49 48 47 46 43 47 47 49 49 47
133 134 135 138 140 143 146 148 155 143 144 138 130 128 132 135 134 124 119 106 96 87 81 76 67 64 56 52 55 49 48 44 43 44 45 45 43 42 41 41 43 45 45 46
137 138 142 143 146 148 147 156 143 139 128 126 128 132 134 126 119 110 101 93 85 79 73 67 62 58 53 49 49 47 43 40 41 40 40 40 39 38 38 39 39 42 45 45
139 142 145 148 150 150 153 142 130 128 127 130 132 126 119 115 103 95 89 85 79 74 67 62 58 53 49 46 45 42 40 38 35 35 36 36 36 35 35 35 36 36 40 41
143 145 147 150 148 156 136 132 129 129 132 129 119 116 107 98 90 85 81 77 72 67 61 57 53 49 45 43 40 40 38 35 33 32 32 32 32 33 33 33 33 33 35 38
145 147 150 153 142 131 131 131 132 129 122 118 110 99 94 88 82 78 74 69 65 61 56 52 49 44 41 39 38 36 34 32 31 30 30 29 29 29 29 29 30 30 32 34
150 150 139 130 128 131 133 130 122 118 112 102 95 90 85 79 75 71 68 64 60 54 51 48 46 42 38 36 35 33 31 29 28 27 26 26 26 25 25 26 26 26 28 31
134 130 128 129 133 128 119 116 111 104 95 87 81 79 76 72 69 65 62 57 53 51 47 44 42 39 36 34 32 31 30 27 25 24 24 23 21 21 22 22 22 23 25 27
131 131 134 124 117 112 108 99 91 85 80 75 71 68 66 64 61 60 54 52 49 49 45 40 37 33 32 31 30 29 28 25 23 23 21 20 19 20 19 19 20 21 23 25
127 119 113 107 100 93 86 80 76 71 68 67 65 63 60 57 53 49 47 46 46 44 42 36 33 31 29 28 28 27 27 25 22 21 20 19 19 19 18 17 18 19 21 22
104 98 91 85 79 75 71 68 66 66 64 63 60 57 53 50 47 45 44 43 41 38 36 33 31 30 28 26 26 25 24 23 22 20 19 19 20 19 19 18 18 19 19 19
86 80 75 71 70 67 64 63 63 62 60 57 55 52 47 45 43 43 43 38 38 34 32 31 29 29 27 25 24 24 24 22 21 21 20 20 21 20 20 18 18 18 18 19
72 69 67 65 62 61 61 59 58 56 55 53 52 50 49 46 45 42 40 38 35 33 31 30 29 27 27 25 25 23 22 22 21 20 20 21 20 20 20 19 19 19 19 19
63 62 61 58 55 56 55 54 54 51 49 47 46 45 45 45 43 41 40 39 35 32 31 29 28 27 27 25 23 22 21 21 21 20 19 19 18 18 19 20 20 20 21 21
57 55 52 50 49 49 49 49 48 48 48 46 45 44 44 44 42 41 39 37 38 35 33 30 29 27 27 26 25 22 21 19 18 18 18 18 17 17 18 18 19 20 20 21
47 46 47 47 46 47 49 49 46 47 49 48 47 45 44 44 44 41 40 39 34 35 35 34 32 30 27 27 27 25 23 22 19 19 18 17 17 17 17 17 17 18 19 20
45 45 44 43 43 44 46 47 44 44 46 47 47 46 45 43 44 43 40 41 42 36 34 34 34 34 32 30 29 29 27 25 23 22 21 19 19 18 18 18 19 19 20 20
41 42 43 43 43 45 45 47 47 46 45 47 46 46 45 43 43 45 43 41 40 40 39 35 33 35 35 34 32 30 31 30 29 26 26 26 25 24 23 23 23 23 24 24
40 41 42 42 43 44 45 47 48 49 49 48 48 48 46 44 42 41 43 44 42 41 39 39 37 33 35 35 35 34 32 32 32 31 30 29 29 28 27 27 26 26 26 25
39 42 43 43 45 45 46 46 48 48 48 48 48 48 46 45 43 41 41 43 43 43 43 40 37 37 35 36 36 35 35 34 33 34 33 33 33 33 32 31 31 30 28 28
Wind_Direction
278 280 282 284 285 287 290 291 293 293 298 294 297 299 300 301 301 299 300 301 304 305 306 306 304 300 298 296 294 291 290 289 287 285 284 282 280 277 274 270 268 266 264 261
277 282 285 286 288 291 291 290 293 295 296 297 299 299 300 301 302 302 306 307 306 304 303 303 301 300 299 296 295 294 292 290 287 284 281 280 278 275 273 270 268 264 261 259
282 284 284 287 288 289 291 293 293 295 297 298 299 302 302 301 304 307 306 306 305 304 303 301 303 302 301 298 295 294 291 290 287 282 281 279 277 274 271 269 266 263 260 258
282 283 285 287 287 289 290 292 294 296 297 299 301 302 304 304 305 305 304 305 305 305 304 304 304 301 299 297 294 292 291 287 285 284 281 278 276 272 271 269 266 262 260 255
279 281 284 286 288 288 288 290 292 296 298 299 301 302 304 304 304 305 306 304 303 304 304 305 303 300 298 295 294 292 289 287 284 281 278 273 272 271 269 271 266 262 259 255
280 281 283 286 285 286 289 292 295 297 299 301 302 304 305 304 305 305 303 304 305 305 306 304 301 301 300 296 292 288 288 285 282 279 277 276 273 270 269 268 267 264 255 250
277 281 283 285 288 290 291 293 295 296 299 301 302 303 303 303 302 302 302 303 303 304 303 301 302 300 297 296 292 290 286 284 282 280 277 276 274 269 265 264 262 259 257 248
279 282 284 286 289 290 293 294 296 299 300 300 302 302 302 301 301 302 302 302 302 303 303 303 301 297 295 294 294 292 286 282 280 277 275 274 272 269 265 264 261 261 256 251
279 282 285 287 290 291 294 297 298 299 300 301 300 300 300 300 301 301 302 301 302 303 303 301 299 298 298 294 292 290 285 284 280 277 275 273 270 267 265 262 259 256 254 251
281 283 285 288 291 293 295 297 296 299 298 297 298 298 298 299 300 300 300 301 302 304 303 301 301 300 300 297 293 290 289 285 280 278 277 273 270 271 266 263 260 254 251 247
282 284 286 289 291 294 296 295 295 296 296 297 297 297 298 299 299 300 300 301 303 303 303 301 300 299 299 298 295 293 287 284 283 280 276 273 272 271 267 263 258 254 250 249
282 285 288 290 291 293 293 293 293 295 295 295 296 297 297 297 298 299 300 301 303 303 302 300 299 299 299 298 294 292 291 288 285 280 276 271 271 270 267 263 258 254 249 247
284 286 288 290 291 290 291 292 293 292 292 294 295 296 295 297 298 298 300 301 302 301 303 303 300 301 299 297 295 293 292 288 284 279 276 274 271 268 265 264 262 257 251 247
284 286 288 287 288 289 290 290 288 289 291 291 292 294 295 296 298 300 302 300 300 301 302 301 299 299 300 297 296 295 293 288 283 280 277 271 268 266 265 263 261 256 250 247
284 284 284 285 286 287 285 285 287 288 288 290 291 292 294 296 298 298 297 298 299 301 301 300 298 296 296 298 300 299 295 289 283 280 274 268 268 264 261 258 258 257 255 249
281 283 284 285 283 282 282 284 285 286 288 289 291 292 294 295 295 294 295 298 300 300 300 299 299 299 298 296 299 298 295 289 284 280 274 269 268 266 261 259 257 255 252 250
282 282 280 280 280 280 280 282 284 285 288 289 290 291 292 293 291 293 296 298 298 297 299 301 302 302 300 298 295 294 292 287 282 277 273 267 264 261 260 261 258 255 253 247
280 279 278 277 278 279 281 283 286 288 288 288 288 288 288 288 289 292 292 293 294 294 297 300 303 302 301 300 296 291 289 286 280 275 271 265 261 260 261 259 256 254 250 247
278 277 279 280 281 281 282 284 285 285 284 284 285 285 285 286 287 285 285 286 289 291 295 298 302 301 299 296 292 291 288 284 279 274 268 264 258 254 254 253 251 251 248 243
280 282 282 280 281 282 283 283 282 281 282 282 282 283 281 279 277 277 280 281 281 287 289 292 297 299 298 295 292 287 286 284 279 273 268 263 257 253 253 251 249 245 243 244
280 277 278 282 283 282 282 283 284 285 285 285 284 282 281 280 279 279 280 279 278 276 280 283 286 292 291 290 289 286 281 278 276 272 268 263 260 254 250 250 249 247 246 246
279 284 284 281 280 280 281 281 282 283 283 284 285 286 286 285 284 283 283 283 283 281 277 274 275 278 283 284 284 280 279 279 278 273 270 266 261 258 252 249 247 248 246 245
280 280 280 281 281 280 281 282 283 283 283 284 284 283 282 282 283 283 284 283 279 282 282 279 273 271 270 274 275 274 272 273 272 272 271 271 268 264 261 259 256 254 254 253
280 280 280 279 280 280 280 280 279 278 279 279 280 281 281 281 281 280 279 279 282 279 276 276 277 273 270 266 268 268 267 265 264 263 261 262 261 262 261 257 255 254 255 255
280 281 282 282 281 279 279 280 281 280 279 280 280 280 280 280 280 281 281 279 277 278 277 274 269 271 271 268 262 262 263 262 259 258 256 255 254 255 256 255 255 256 256 255
278 279 280 280 279 279 279 279 280 281 281 281 282 282 282 281 279 277 277 279 278 276 272 272 271 266 265 266 266 260 258 259 259 256 254 253 254 256 255 254 254 255 254 255
291 291 290 290 289 288 287 286 285 284 284 284 285 284 283 282 281 278 275 274 274 274 274 271 266 266 262 262 263 262 259 255 255 256 254 253 253 254 254 255 256 255 256 259
Height
10515 10513 10513 10512 10511 10504 10496 10488 10482 10476 10472 10469 10457 10460 10457 10441 10429 10422 10410 10397 10384 10371 10357 10343 10333 10315 10298 10282 10268 10254 10245 10235 10224 10217 10208 10203 10203 10203 10205 10206 10207 10210 10212 10218
10496 10493 10490 10488 10486 10479 10472 10463 10461 10453 10444 10446 10435 10430 10425 10408 10394 10384 10373 10356 10346 10335 10321 10308 10290 10274 10255 10238 10222 10208 10201 10195 10189 10183 10177 10173 10173 10174 10173 10177 10180 10184 10187 10193
10473 10472 10466 10466 10466 10452 10445 10440 10434 10427 10416 10410 10407 10400 10394 10371 10359 10349 10337 10324 10312 10300 10284 10265 10246 10228 10211 10197 10185 10175 10167 10160 10156 10153 10150 10146 10146 10148 10149 10152 10156 10160 10164 10169
10451 10448 10443 10446 10439 10431 10422 10417 10408 10401 10391 10379 10374 10372 10364 10332 10326 10317 10302 10284 10270 10254 10238 10222 10207 10190 10177 10164 10155 10148 10141 10135 10130 10128 10128 10123 10123 10125 10127 10130 10134 10138 10143 10150
10430 10428 10422 10424 10418 10408 10399 10394 10387 10376 10368 10356 10343 10339 10336 10301 10291 10278 10262 10249 10236 10221 10205 10189 10172 10159 10150 10139 10128 10120 10117 10112 10106 10103 10104 10101 10102 10105 10106 10110 10114 10118 10123 10130
10409 10405 10402 10399 10391 10381 10374 10366 10364 10350 10337 10327 10316 10306 10306 10280 10260 10248 10229 10213 10200 10184 10171 10157 10145 10134 10124 10115 10107 10100 10095 10090 10087 10084 10083 10083 10085 10087 10088 10091 10095 10101 10105 10110
10385 10384 10384 10374 10370 10361 10351 10342 10335 10326 10316 10303 10293 10274 10271 10260 10240 10222 10206 10190 10172 10159 10146 10133 10121 10112 10103 10092 10086 10082 10078 10072 10069 10069 10067 10066 10066 10069 10072 10073 10077 10081 10087 10094
10364 10360 10359 10354 10343 10336 10331 10320 10308 10296 10286 10277 10264 10252 10239 10225 10210 10194 10178 10163 10146 10136 10123 10109 10100 10092 10086 10076 10067 10065 10061 10057 10055 10053 10051 10051 10051 10052 10056 10058 10060 10064 10070 10077
10342 10339 10331 10327 10320 10310 10304 10292 10280 10272 10259 10250 10239 10225 10210 10197 10182 10166 10153 10140 10128 10116 10105 10091 10084 10074 10070 10061 10053 10049 10044 10043 10041 10038 10037 10036 10036 10037 10039 10042 10045 10048 10053 10061
10319 10315 10304 10300 10289 10285 10275 10267 10253 10249 10238 10223 10214 10196 10185 10169 10155 10143 10130 10118 10108 10099 10089 10077 10067 10060 10055 10046 10040 10035 10033 10030 10026 10025 10024 10023 10023 10024 10025 10027 10031 10034 10037 10043
10300 10290 10283 10272 10261 10256 10247 10238 10230 10221 10207 10195 10184 10169 10158 10144 10132 10122 10110 10099 10090 10081 10073 10063 10053 10047 10041 10035 10028 10024 10020 10018 10016 10014 10012 10011 10011 10012 10013 10015 10017 10021 10025 10030
10276 10268 10258 10247 10234 10229 10216 10207 10200 10189 10174 10163 10156 10144 10134 10123 10114 10104 10094 10083 10074 10065 10059 10050 10042 10035 10029 10023 10017 10013 10010 10007 10005 10004 10002 10001 10001 10002 10002 10004 10006 10009 10013 10018
10251 10247 10231 10223 10211 10202 10187 10180 10170 10157 10148 10138 10129 10121 10112 10103 10095 10087 10078 10069 10062 10054 10045 10037 10030 10023 10017 10012 10007 10004 10001 9998 9996 9995 9994 9994 9994 9994 9994 9995 9997 9999 10002 10006
10226 10220 10208 10199 10188 10172 10161 10152 10138 10131 10124 10118 10108 10099 10092 10084 10077 10070 10062 10054 10048 10041 10034 10026 10019 10013 10008 10003 9999 9995 9993 9990 9989 9987 9987 9986 9986 9987 9987 9987 9989 9991 9994 9997
10199 10190 10184 10172 10159 10149 10137 10125 10118 10109 10102 10096 10090 10082 10074 10067 10060 10054 10049 10042 10036 10029 10023 10016 10010 10004 9999 9995 9990 9987 9985 9983 9981 9980 9979 9978 9979 9980 9980 9981 9982 9984 9986 9989
10170 10161 10151 10142 10132 10121 10112 10104 10097 10089 10081 10076 10070 10065 10059 10053 10046 10041 10035 10029 10023 10017 10012 10007 10000 9995 9990 9987 9983 9980 9977 9976 9974 9973 9972 9972 9972 9973 9974 9975 9976 9978 9980 9982
10140 10130 10121 10112 10104 10098 10090 10082 10075 10069 10063 10057 10052 10047 10042 10037 10033 10028 10023 10018 10013 10007 10002 9997 9991 9986 9982 9979 9976 9973 9971 9969 9967 9966 9966 9966 9966 9966 9967 9969 9970 9972 9973 9976
10107 10101 10093 10087 10081 10075 10068 10061 10055 10050 10045 10040 10035 10032 10027 10023 10018 10014 10010 10006 10001 9997 9991 9987 9982 9978 9974 9971 9968 9967 9965 9963 9961 9960 9959 9959 9960 9960 9961 9963 9964 9966 9968 9970
10081 10074 10069 10064 10058 10052 10046 10042 10036 10032 10027 10024 10019 10016 10013 10009 10005 10002 9998 9994 9988 9984 9981 9977 9973 9970 9967 9964 9962 9960 9958 9957 9956 9954 9954 9953 9954 9954 9956 9957 9959 9960 9962 9964
10059 10054 10048 10042 10036 10031 10026 10023 10019 10016 10012 10009 10004 10000 9998 9996 9993 9989 9985 9982 9977 9973 9969 9966 9964 9962 9960 9957 9955 9953 9952 9951 9950 9949 9948 9948 9948 9949 9950 9951 9953 9955 9957 9958
10038 10031 10026 10023 10019 10014 10010 10007 10002 10001 9998 9994 9991 9988 9984 9981 9978 9976 9972 9968 9966 9963 9958 9956 9954 9953 9952 9950 9948 9946 9945 9944 9944 9943 9942 9942 9943 9943 9944 9945 9946 9948 9950 9952
10018 10015 10012 10008 10003 9999 9995 9992 9988 9985 9981 9978 9976 9974 9971 9966 9964 9961 9960 9957 9952 9951 9948 9946 9944 9943 9942 9942 9940 9938 9938 9937 9937 9937 9937 9937 9937 9937 9939 9940 9940 9942 9943 9945
10005 10001 9997 9993 9990 9985 9980 9978 9976 9971 9966 9964 9961 9960 9957 9953 9949 9948 9945 9941 9943 9939 9937 9936 9935 9932 9931 9931 9932 9931 9930 9930 9930 9931 9931 9931 9932 9932 9933 9933 9934 9935 9936 9938
9989 9986 9982 9979 9976 9971 9966 9962 9961 9957 9953 9950 9947 9944 9941 9939 9935 9933 9932 9928 9925 9927 9926 9924 9922 9922 9921 9920 9921 9922 9922 9922 9923 9924 9925 9925 9926 9927 9928 9928 9929 9930 9931 9932
9975 9971 9967 9964 9961 9956 9951 9946 9943 9940 9937 9933 9930 9927 9926 9924 9922 9916 9915 9915 9914 9912 9910 9911 9912 9910 9910 9910 9910 9911 9912 9913 9914 9916 9917 9918 9919 9920 9921 9922 9923 9924 9925 9926
9962 9957 9952 9949 9944 9940 9936 9932 9927 9923 9920 9917 9913 9911 9910 9909 9907 9905 9901 9897 9897 9897 9897 9897 9897 9899 9898 9898 9899 9899 9900 9902 9904 9906 9907 9909 9910 9912 9913 9915 9916 9917 9918 9919
9946 9940 9935 9932 9927 9923 9919 9915 9911 9907 9904 9901 9897 9894 9893 9891 9890 9889 9887 9884 9882 9880 9879 9881 9882 9883 9885 9885 9886 9887 9888 9890 9891 9894 9896 9898 9900 9902 9903 9905 9906 9908 9909 9911